Tracking 35331 objects as of 16-Sep-2026
HD Live streaming from Space Station
objects crossing your sky now

STARLINK-3891

Track STARLINK-3891 now!
10-day predictions
STARLINK-3891 is classified as:


NORAD ID: 52650
Int'l Code: 2022-052BE
Launch date: May 14, 2022
Source: United States (US)
Launch site: AIR FORCE EASTERN TEST RANGE (AFETR)
Your satellite tracking list
Your tracking list is empty




NASA's NSSDC Master Catalog

Two Line Element Set (TLE):
1 52650U 22052BE  26259.00002315  .00058326  00000-0  17261-2 0  9997
2 52650  53.1603 104.4336 0001379  75.5002  91.7002 15.34361290  5635
Source of the keplerian elements: AFSPC